Time,TemperatureF,DewpointF,PressureIn,WindDirection,WindDirectionDegrees,WindSpeedMPH,WindSpeedGustMPH,Humidity,HourlyPrecipIn,Conditions,Clouds,dailyrainin,SoftwareType,DateUTC
2013-02-13 00:02:00,25.0,24.0,-100.00,WSW,240,2.0,4.0,95,0.00,,,-99.99,,2013-02-13 06:02:00,
2013-02-13 00:11:00,25.0,24.0,-100.00,WSW,240,2.0,4.0,95,0.00,,,-99.99,,2013-02-13 06:11:00,
2013-02-13 00:21:00,26.0,24.0,-100.00,WSW,255,2.0,4.0,94,0.00,,,-99.99,,2013-02-13 06:21:00,
2013-02-13 00:32:00,26.0,24.0,-100.00,SW,235,1.0,5.0,94,0.00,,,-99.99,,2013-02-13 06:32:00,
2013-02-13 00:42:00,26.0,24.0,-100.00,SSW,205,1.0,3.0,94,0.00,,,-99.99,,2013-02-13 06:42:00,
2013-02-13 00:51:00,26.0,24.0,-100.00,SSW,205,1.0,3.0,94,0.00,,,-99.99,,2013-02-13 06:51:00,
2013-02-13 01:02:00,25.0,24.0,-100.00,South,175,2.0,4.0,94,0.00,,,-99.99,,2013-02-13 07:02:00,
2013-02-13 01:11:00,25.0,24.0,-100.00,South,175,2.0,4.0,94,0.00,,,-99.99,,2013-02-13 07:11:00,
2013-02-13 01:21:00,25.0,24.0,-100.00,SSE,155,2.0,3.0,94,0.00,,,-99.99,,2013-02-13 07:21:00,
2013-02-13 01:32:00,25.0,23.0,-100.00,South,185,2.0,4.0,94,0.00,,,-99.99,,2013-02-13 07:32:00,
2013-02-13 01:42:00,23.0,21.0,-100.00,SSE,160,2.0,3.0,94,0.00,,,-99.99,,2013-02-13 07:42:00,
2013-02-13 01:51:00,23.0,21.0,-100.00,SSE,160,2.0,3.0,94,0.00,,,-99.99,,2013-02-13 07:51:00,
2013-02-13 02:01:00,23.0,22.0,-100.00,South,180,2.0,4.0,94,0.00,,,-99.99,,2013-02-13 08:01:00,
2013-02-13 02:11:00,23.0,22.0,-100.00,South,180,2.0,4.0,94,0.00,,,-99.99,,2013-02-13 08:11:00,
2013-02-13 02:21:00,24.0,22.0,-100.00,South,185,2.0,5.0,94,0.00,,,-99.99,,2013-02-13 08:21:00,
2013-02-13 02:32:00,22.0,21.0,-100.00,ESE,115,2.0,3.0,94,0.00,,,-99.99,,2013-02-13 08:32:00,
2013-02-13 02:43:00,22.0,20.0,-100.00,SE,130,2.0,5.0,95,0.00,,,-99.99,,2013-02-13 08:43:00,
2013-02-13 02:52:00,22.0,20.0,-100.00,SE,130,2.0,5.0,95,0.00,,,-99.99,,2013-02-13 08:52:00,
2013-02-13 03:01:00,21.0,20.0,-100.00,SSE,155,2.0,4.0,95,0.00,,,-99.99,,2013-02-13 09:01:00,
2013-02-13 03:11:00,21.0,20.0,-100.00,SSE,155,2.0,4.0,95,0.00,,,-99.99,,2013-02-13 09:11:00,
2013-02-13 03:21:00,20.0,19.0,-100.00,East,100,1.0,4.0,96,0.00,,,-99.99,,2013-02-13 09:21:00,
2013-02-13 03:31:00,19.0,18.0,-100.00,NE,50,1.0,2.0,96,0.00,,,-99.99,,2013-02-13 09:31:00,
2013-02-13 03:42:00,19.0,18.0,-100.00,East,95,1.0,2.0,96,0.00,,,-99.99,,2013-02-13 09:42:00,
2013-02-13 03:51:00,19.0,18.0,-100.00,East,95,1.0,2.0,96,0.00,,,-99.99,,2013-02-13 09:51:00,
2013-02-13 04:01:00,18.0,17.0,-100.00,ESE,110,4.0,4.0,96,0.00,,,-99.99,,2013-02-13 10:01:00,
2013-02-13 04:11:00,18.0,17.0,-100.00,ESE,110,4.0,4.0,96,0.00,,,-99.99,,2013-02-13 10:11:00,
2013-02-13 04:21:00,18.0,17.0,-100.00,ESE,110,2.0,4.0,96,0.00,,,-99.99,,2013-02-13 10:21:00,
2013-02-13 04:32:00,17.0,17.0,-100.00,SSE,155,4.0,6.0,97,0.00,,,-99.99,,2013-02-13 10:32:00,
2013-02-13 04:42:00,17.0,16.0,-100.00,ESE,115,3.0,4.0,97,0.00,,,-99.99,,2013-02-13 10:42:00,
2013-02-13 04:51:00,17.0,16.0,-100.00,ESE,115,3.0,4.0,97,0.00,,,-99.99,,2013-02-13 10:51:00,
2013-02-13 05:01:00,16.0,16.0,-100.00,ESE,120,2.0,6.0,98,0.00,,,-99.99,,2013-02-13 11:01:00,
2013-02-13 05:11:00,16.0,16.0,-100.00,ESE,120,2.0,6.0,98,0.00,,,-99.99,,2013-02-13 11:11:00,
2013-02-13 05:22:00,17.0,16.0,-100.00,ESE,120,2.0,4.0,98,0.00,,,-99.99,,2013-02-13 11:22:00,
2013-02-13 05:32:00,16.0,16.0,-100.00,SSE,150,4.0,4.0,98,0.00,,,-99.99,,2013-02-13 11:32:00,
2013-02-13 05:42:00,15.0,15.0,-100.00,SSE,165,1.0,4.0,98,0.00,,,-99.99,,2013-02-13 11:42:00,
2013-02-13 05:52:00,15.0,15.0,-100.00,SSE,165,1.0,4.0,98,0.00,,,-99.99,,2013-02-13 11:52:00,
2013-02-13 06:02:00,15.0,14.0,-100.00,ESE,120,2.0,2.0,98,0.00,,,-99.99,,2013-02-13 12:02:00,
2013-02-13 06:11:00,15.0,14.0,-100.00,ESE,120,2.0,2.0,98,0.00,,,-99.99,,2013-02-13 12:11:00,
2013-02-13 06:21:00,14.0,13.0,-100.00,South,175,2.0,4.0,98,0.00,,,-99.99,,2013-02-13 12:21:00,
2013-02-13 06:32:00,14.0,14.0,-100.00,SE,140,1.0,3.0,98,0.00,,,-99.99,,2013-02-13 12:32:00,
2013-02-13 06:42:00,13.0,13.0,-100.00,SE,130,2.0,4.0,99,0.00,,,-99.99,,2013-02-13 12:42:00,
2013-02-13 06:52:00,13.0,13.0,-100.00,SE,130,2.0,4.0,99,0.00,,,-99.99,,2013-02-13 12:52:00,
2013-02-13 07:02:00,13.0,13.0,-100.00,South,190,1.0,3.0,99,0.00,,,-99.99,,2013-02-13 13:02:00,
2013-02-13 07:11:00,13.0,13.0,-100.00,South,190,1.0,3.0,99,0.00,,,-99.99,,2013-02-13 13:11:00,
2013-02-13 07:21:00,14.0,14.0,-100.00,SSW,205,0.0,2.0,99,0.00,,,-99.99,,2013-02-13 13:21:00,
2013-02-13 07:32:00,13.0,13.0,-100.00,SE,145,1.0,3.0,99,0.00,,,-99.99,,2013-02-13 13:32:00,
2013-02-13 07:42:00,14.0,14.0,-100.00,SSE,160,1.0,2.0,99,0.00,,,-99.99,,2013-02-13 13:42:00,
2013-02-13 07:51:00,14.0,14.0,-100.00,SSE,160,1.0,2.0,99,0.00,,,-99.99,,2013-02-13 13:51:00,
2013-02-13 08:01:00,14.0,14.0,-100.00,ESE,110,2.0,3.0,99,0.00,,,-99.99,,2013-02-13 14:01:00,
2013-02-13 08:11:00,14.0,14.0,-100.00,ESE,110,2.0,3.0,99,0.00,,,-99.99,,2013-02-13 14:11:00,
2013-02-13 08:21:00,15.0,15.0,-100.00,SE,145,1.0,3.0,99,0.00,,,-99.99,,2013-02-13 14:21:00,
2013-02-13 08:31:00,16.0,16.0,-100.00,SSE,160,0.0,3.0,99,0.00,,,-99.99,,2013-02-13 14:31:00,
2013-02-13 08:42:00,18.0,18.0,-100.00,South,185,1.0,3.0,99,0.00,,,-99.99,,2013-02-13 14:42:00,
2013-02-13 08:52:00,18.0,18.0,-100.00,South,185,1.0,3.0,99,0.00,,,-99.99,,2013-02-13 14:52:00,
2013-02-13 09:01:00,18.0,18.0,-100.00,SE,135,2.0,3.0,99,0.00,,,-99.99,,2013-02-13 15:01:00,
2013-02-13 09:11:00,18.0,18.0,-100.00,SE,135,2.0,3.0,99,0.00,,,-99.99,,2013-02-13 15:11:00,
2013-02-13 09:21:00,20.0,20.0,-100.00,SE,135,1.0,2.0,99,0.00,,,-99.99,,2013-02-13 15:21:00,
2013-02-13 09:32:00,20.0,20.0,-100.00,SSE,160,1.0,4.0,99,0.00,,,-99.99,,2013-02-13 15:32:00,
2013-02-13 09:42:00,22.0,22.0,-100.00,South,170,1.0,2.0,99,0.00,,,-99.99,,2013-02-13 15:42:00,
2013-02-13 09:51:00,22.0,22.0,-100.00,South,170,1.0,2.0,99,0.00,,,-99.99,,2013-02-13 15:51:00,
2013-02-13 10:01:00,23.0,23.0,-100.00,SE,135,0.0,2.0,99,0.00,,,-99.99,,2013-02-13 16:01:00,
2013-02-13 10:11:00,23.0,23.0,-100.00,SE,135,0.0,2.0,99,0.00,,,-99.99,,2013-02-13 16:11:00,
2013-02-13 10:21:00,26.0,26.0,-100.00,SSW,210,0.0,1.0,99,0.00,,,-99.99,,2013-02-13 16:21:00,
2013-02-13 10:31:00,27.0,26.0,-100.00,SW,235,1.0,3.0,98,0.00,,,-99.99,,2013-02-13 16:31:00,
2013-02-13 10:42:00,29.0,28.0,-100.00,SSW,210,2.0,3.0,96,0.00,,,-99.99,,2013-02-13 16:42:00,
2013-02-13 10:51:00,29.0,28.0,-100.00,SSW,210,2.0,3.0,96,0.00,,,-99.99,,2013-02-13 16:51:00,
2013-02-13 11:01:00,29.0,28.0,-100.00,SSE,165,2.0,4.0,95,0.00,,,-99.99,,2013-02-13 17:01:00,
2013-02-13 11:11:00,29.0,28.0,-100.00,SSE,165,2.0,4.0,95,0.00,,,-99.99,,2013-02-13 17:11:00,
2013-02-13 11:21:00,29.0,27.0,-100.00,WSW,245,2.0,6.0,92,0.00,,,-99.99,,2013-02-13 17:21:00,
2013-02-13 11:32:00,29.0,27.0,-100.00,SSW,210,2.0,4.0,90,0.00,,,-99.99,,2013-02-13 17:32:00,
2013-02-13 11:42:00,30.0,27.0,-100.00,SW,225,1.0,4.0,87,0.00,,,-99.99,,2013-02-13 17:42:00,
2013-02-13 11:52:00,30.0,27.0,-100.00,SW,225,1.0,4.0,87,0.00,,,-99.99,,2013-02-13 17:52:00,
2013-02-13 12:01:00,30.0,26.0,-100.00,SW,235,1.0,4.0,85,0.00,,,-99.99,,2013-02-13 18:01:00,
2013-02-13 12:11:00,30.0,26.0,-100.00,SW,235,1.0,4.0,85,0.00,,,-99.99,,2013-02-13 18:11:00,
2013-02-13 12:22:00,30.0,26.0,-100.00,South,185,1.0,6.0,84,0.03,,,-99.99,,2013-02-13 18:22:00,
2013-02-13 12:32:00,31.0,26.0,-100.00,SW,220,1.0,4.0,84,0.13,,,-99.99,,2013-02-13 18:32:00,
2013-02-13 12:42:00,31.0,27.0,-100.00,SSW,200,0.0,2.0,85,0.13,,,-99.99,,2013-02-13 18:42:00,
2013-02-13 12:52:00,31.0,27.0,-100.00,SSW,200,0.0,2.0,85,0.13,,,-99.99,,2013-02-13 18:52:00,
2013-02-13 13:01:00,31.0,27.0,-100.00,SW,215,0.0,2.0,86,0.14,,,-99.99,,2013-02-13 19:01:00,
2013-02-13 13:11:00,31.0,27.0,-100.00,SW,215,0.0,2.0,86,0.14,,,-99.99,,2013-02-13 19:11:00,
2013-02-13 13:21:00,32.0,28.0,-100.00,South,180,1.0,2.0,87,0.16,,,-99.99,,2013-02-13 19:21:00,
2013-02-13 13:31:00,32.0,29.0,-100.00,ESE,120,1.0,3.0,87,0.08,,,-99.99,,2013-02-13 19:31:00,
2013-02-13 13:42:00,31.0,28.0,-100.00,ESE,110,2.0,4.0,89,0.04,,,-99.99,,2013-02-13 19:42:00,
2013-02-13 13:51:00,31.0,28.0,-100.00,ESE,110,2.0,4.0,89,0.04,,,-99.99,,2013-02-13 19:51:00,
2013-02-13 14:02:00,31.0,28.0,-100.00,East,85,1.0,4.0,90,0.04,,,-99.99,,2013-02-13 20:02:00,
2013-02-13 14:11:00,31.0,28.0,-100.00,East,85,1.0,4.0,90,0.04,,,-99.99,,2013-02-13 20:11:00,
2013-02-13 14:21:00,30.0,28.0,-100.00,ESE,105,1.0,4.0,92,0.06,,,-99.99,,2013-02-13 20:21:00,
2013-02-13 14:31:00,30.0,28.0,-100.00,East,90,2.0,4.0,92,0.27,,,-99.99,,2013-02-13 20:31:00,
2013-02-13 14:42:00,30.0,28.0,-100.00,East,95,2.0,4.0,94,0.21,,,-99.99,,2013-02-13 20:42:00,
2013-02-13 14:52:00,30.0,28.0,-100.00,East,95,2.0,4.0,94,0.21,,,-99.99,,2013-02-13 20:52:00,
2013-02-13 15:01:00,30.0,28.0,-100.00,ESE,105,2.0,4.0,94,0.51,,,-99.99,,2013-02-13 21:01:00,
2013-02-13 15:11:00,30.0,28.0,-100.00,ESE,105,2.0,4.0,94,0.51,,,-99.99,,2013-02-13 21:11:00,
2013-02-13 15:21:00,30.0,29.0,-100.00,East,90,1.0,3.0,94,0.23,,,-99.99,,2013-02-13 21:21:00,
2013-02-13 15:31:00,30.0,29.0,-100.00,East,90,0.0,2.0,95,0.24,,,-99.99,,2013-02-13 21:31:00,
2013-02-13 15:42:00,31.0,30.0,-100.00,NE,35,1.0,2.0,95,0.31,,,-99.99,,2013-02-13 21:42:00,
2013-02-13 15:52:00,31.0,30.0,-100.00,NE,35,1.0,2.0,95,0.31,,,-99.99,,2013-02-13 21:52:00,
2013-02-13 16:02:00,31.0,30.0,-100.00,NE,35,1.0,2.0,96,0.31,,,-99.99,,2013-02-13 22:02:00,
2013-02-13 16:11:00,31.0,30.0,-100.00,NE,35,1.0,2.0,96,0.31,,,-99.99,,2013-02-13 22:11:00,
2013-02-13 16:21:00,31.0,30.0,-100.00,NNE,20,2.0,4.0,96,0.45,,,-99.99,,2013-02-13 22:21:00,
2013-02-13 16:31:00,30.0,29.0,-100.00,NNE,20,3.0,5.0,96,0.50,,,-99.99,,2013-02-13 22:31:00,
2013-02-13 16:42:00,29.0,29.0,-100.00,NNE,15,2.0,7.0,96,0.18,,,-99.99,,2013-02-13 22:42:00,
2013-02-13 16:51:00,29.0,29.0,-100.00,NNE,15,2.0,7.0,96,0.18,,,-99.99,,2013-02-13 22:51:00,
2013-02-13 17:01:00,29.0,28.0,-100.00,North,5,3.0,6.0,96,0.24,,,-99.99,,2013-02-13 23:01:00,
2013-02-13 17:11:00,29.0,28.0,-100.00,North,5,3.0,6.0,96,0.24,,,-99.99,,2013-02-13 23:11:00,
2013-02-13 17:21:00,29.0,28.0,-100.00,North,0,2.0,4.0,96,0.17,,,-99.99,,2013-02-13 23:21:00,
2013-02-13 17:32:00,29.0,28.0,-100.00,North,355,2.0,6.0,96,0.13,,,-99.99,,2013-02-13 23:32:00,
2013-02-13 17:42:00,27.0,27.0,-100.00,North,0,3.0,9.0,97,0.14,,,-99.99,,2013-02-13 23:42:00,
2013-02-13 17:52:00,27.0,27.0,-100.00,North,0,3.0,9.0,97,0.14,,,-99.99,,2013-02-13 23:52:00,
2013-02-13 18:02:00,27.0,26.0,-100.00,North,5,4.0,8.0,97,0.14,,,-99.99,,2013-02-14 00:02:00,
2013-02-13 18:11:00,27.0,26.0,-100.00,North,5,4.0,8.0,97,0.14,,,-99.99,,2013-02-14 00:11:00,
2013-02-13 18:21:00,27.0,26.0,-100.00,NNW,335,2.0,7.0,97,0.24,,,-99.99,,2013-02-14 00:21:00,
2013-02-13 18:32:00,26.0,26.0,-100.00,North,0,4.0,9.0,98,0.18,,,-99.99,,2013-02-14 00:32:00,
2013-02-13 18:42:00,26.0,26.0,-100.00,North,5,2.0,9.0,98,0.14,,,-99.99,,2013-02-14 00:42:00,
2013-02-13 18:51:00,26.0,26.0,-100.00,North,5,2.0,9.0,98,0.14,,,-99.99,,2013-02-14 00:51:00,
2013-02-13 19:01:00,26.0,26.0,-100.00,North,0,4.0,9.0,98,0.06,,,-99.99,,2013-02-14 01:01:00,
2013-02-13 19:11:00,26.0,26.0,-100.00,North,0,4.0,9.0,98,0.06,,,-99.99,,2013-02-14 01:11:00,
2013-02-13 19:21:00,26.0,26.0,-100.00,NNW,330,6.0,9.0,98,0.14,,,-99.99,,2013-02-14 01:21:00,
2013-02-13 19:31:00,26.0,26.0,-100.00,NNW,340,4.0,9.0,98,0.11,,,-99.99,,2013-02-14 01:31:00,
2013-02-13 19:41:00,26.0,26.0,-100.00,North,0,4.0,9.0,99,0.08,,,-99.99,,2013-02-14 01:41:00,
2013-02-13 19:51:00,26.0,26.0,-100.00,North,0,4.0,9.0,99,0.08,,,-99.99,,2013-02-14 01:51:00,
2013-02-13 20:01:00,26.0,26.0,-100.00,North,0,5.0,9.0,99,0.04,,,-99.99,,2013-02-14 02:01:00,
2013-02-13 20:11:00,26.0,26.0,-100.00,North,0,5.0,9.0,99,0.04,,,-99.99,,2013-02-14 02:11:00,
2013-02-13 20:21:00,26.0,26.0,-100.00,North,0,5.0,9.0,99,0.01,,,-99.99,,2013-02-14 02:21:00,
2013-02-13 20:31:00,26.0,25.0,-100.00,North,350,4.0,7.0,99,0.00,,,-99.99,,2013-02-14 02:31:00,
2013-02-13 20:41:00,26.0,25.0,-100.00,North,350,4.0,7.0,99,0.00,,,-99.99,,2013-02-14 02:41:00,
2013-02-13 20:51:00,26.0,25.0,-100.00,North,350,4.0,7.0,99,0.00,,,-99.99,,2013-02-14 02:51:00,
2013-02-13 21:02:00,25.0,25.0,-100.00,NNW,335,5.0,9.0,99,0.00,,,-99.99,,2013-02-14 03:02:00,
2013-02-13 21:11:00,25.0,25.0,-100.00,NNW,335,5.0,9.0,99,0.00,,,-99.99,,2013-02-14 03:11:00,
2013-02-13 21:21:00,25.0,25.0,-100.00,NNW,335,6.0,9.0,99,0.00,,,-99.99,,2013-02-14 03:21:00,
2013-02-13 21:31:00,25.0,25.0,-100.00,NNW,335,6.0,9.0,99,0.00,,,-99.99,,2013-02-14 03:31:00,
2013-02-13 21:42:00,24.0,24.0,-100.00,NNW,335,6.0,9.0,99,0.00,,,-99.99,,2013-02-14 03:42:00,
2013-02-13 21:51:00,24.0,24.0,-100.00,NNW,335,6.0,9.0,99,0.00,,,-99.99,,2013-02-14 03:51:00,
2013-02-13 22:01:00,24.0,23.0,-100.00,North,10,3.0,9.0,99,0.00,,,-99.99,,2013-02-14 04:01:00,
2013-02-13 22:12:00,24.0,23.0,-100.00,North,10,3.0,9.0,99,0.00,,,-99.99,,2013-02-14 04:12:00,
2013-02-13 22:21:00,22.0,22.0,-100.00,North,355,2.0,9.0,99,0.00,,,-99.99,,2013-02-14 04:21:00,
2013-02-13 22:31:00,22.0,22.0,-100.00,NW,325,4.0,7.0,99,0.00,,,-99.99,,2013-02-14 04:31:00,
2013-02-13 22:41:00,21.0,21.0,-100.00,NNW,330,6.0,9.0,99,0.00,,,-99.99,,2013-02-14 04:41:00,
2013-02-13 22:51:00,21.0,21.0,-100.00,NNW,330,6.0,9.0,99,0.00,,,-99.99,,2013-02-14 04:51:00,
2013-02-13 23:02:00,20.0,20.0,-100.00,NNW,335,6.0,9.0,99,0.00,,,-99.99,,2013-02-14 05:02:00,
2013-02-13 23:11:00,20.0,20.0,-100.00,NNW,335,6.0,9.0,99,0.00,,,-99.99,,2013-02-14 05:11:00,
2013-02-13 23:21:00,20.0,20.0,-100.00,NNW,340,6.0,9.0,99,0.00,,,-99.99,,2013-02-14 05:21:00,
2013-02-13 23:31:00,20.0,20.0,-100.00,NW,325,5.0,9.0,99,0.00,,,-99.99,,2013-02-14 05:31:00,
2013-02-13 23:42:00,19.0,19.0,-100.00,NNW,335,4.0,9.0,99,0.00,,,-99.99,,2013-02-14 05:42:00,
2013-02-13 23:52:00,19.0,19.0,-100.00,NNW,335,4.0,9.0,99,0.00,,,-99.99,,2013-02-14 05:52:00,